This is the latest recevied weather packets stored in our database for station/object KD8OUK. If no packets are shown the sender has not sent any weather packets the latest 10 day(s).
| Time | Temp. | Humidity | Pressure | Rain* | Wind** | Luminosity | Snow |
|---|---|---|---|---|---|---|---|
| 1778039129 | 7.22° C | 99% | 1008.6 hPa | 2.29 mm | - | - | - |
| 1778038818 | 7.22° C | 99% | 1008.6 hPa | 3.05 mm | - | - | - |
| 1778038529 | 7.22° C | 99% | 1008.5 hPa | 3.3 mm | - | - | - |
| 1778038221 | 7.22° C | 99% | 1008.5 hPa | 4.06 mm | - | - | - |
| 1778037930 | 7.78° C | 99% | 1008.6 hPa | 4.83 mm | - | - | - |
| 1778037623 | 7.78° C | 99% | 1008.6 hPa | 5.84 mm | - | - | - |
| 1778037333 | 7.78° C | 99% | 1008.7 hPa | 6.1 mm | - | - | - |
| 1778037025 | 7.78° C | 99% | 1008.7 hPa | 6.1 mm | - | - | - |
| 1778036717 | 7.78° C | 99% | 1008.7 hPa | 6.1 mm | - | - | - |
| 1778036427 | 7.78° C | 99% | 1009.2 hPa | 6.1 mm | - | - | - |
| 1778036119 | 7.78° C | 99% | 1009.3 hPa | 5.59 mm | - | - | - |
| 1778035829 | 7.78° C | 99% | 1009.3 hPa | 5.84 mm | - | - | - |
| 1778035522 | 7.78° C | 99% | 1009.5 hPa | 5.84 mm | - | - | - |
| 1778035232 | 7.78° C | 99% | 1009.5 hPa | 5.33 mm | - | - | - |
| 1778034924 | 7.78° C | 99% | 1009.5 hPa | 5.33 mm | - | - | - |
| 1778034616 | 7.78° C | 99% | 1009.5 hPa | 5.33 mm | - | - | - |
| 1778034326 | 8.33° C | 99% | 1009.6 hPa | 5.33 mm | - | - | - |
| 1778034019 | 8.33° C | 99% | 1009.7 hPa | 5.08 mm | - | - | - |
| 1778033729 | 8.33° C | 99% | 1009.6 hPa | 5.84 mm | - | - | - |
| 1778033421 | 8.33° C | 99% | 1009.3 hPa | 6.6 mm | - | - | - |
| 1778033131 | 8.33° C | 99% | 1009.3 hPa | 7.62 mm | - | - | - |
| 1778032821 | 8.33° C | 99% | 1009.3 hPa | 8.13 mm | - | - | - |
| 1778032532 | 8.89° C | 99% | 1009.3 hPa | 8.89 mm | - | - | - |
| 1778032224 | 8.89° C | 99% | 1009.4 hPa | 8.89 mm | - | - | - |
| 1778031917 | 8.89° C | 99% | 1009.5 hPa | 8.89 mm | - | - | - |
* Rain latest hour (hover to see other rain measurements)
** Current wind speed in m/s (hover to see current wind gust speed)